Weather in Ketrysanivka

Ukraine / Kirovohrad Region     47°54′39″N   32°10′09″E
temp.,
°C
wind,
m/s
gust,
m/s
humid.,
%
clouds,
%
prec.,
mm/h
press.,
hPa
HPBL,
m
19 january, wed
wed1923:00−5nnw91481100 0.1 10191125
02:00−5nnw91481100 0.1 1021961
05:00−6nnw81482100 0.0 1023806
08:00−6nnw7148382 0.0 1024652
11:00−4nnw7106927 0.0 1025704
14:00−3nnw685884 0.0 1024733
17:00−5nw357885 0.0 1024130
20:00−5w35825 0.0 102388
20 january, thu
thu2023:00−6wsw24875 0.0 102372
02:00−6sw36935 0.0 102198
05:00−6ssw379582 0.0 1019130
08:00−6ssw499315 0.0 1018194
11:00−1ssw6126556 0.0 1016489
14:00+2ssw611675 0.0 1013745
17:00−1ssw49855 0.0 1011143
20:00−3sw3582100 0.0 101080
21 january, fri
fri2123:00−2wsw2375100 0.0 101062
02:00−3sw347894 0.0 101063
05:00−3wsw4107799 0.0 1009181
08:00−2wnw6128469 0.0 1011597
11:00−2w7116599 0.0 1013853
14:00−1w71153100 0.0 10131282
17:00−3wsw510580 0.0 1013295
20:00−4sw511645 0.0 1013322
22 january, sat
sat2223:00−4wsw512705 0.0 1013384
02:00−5wsw512785 0.0 1013373
05:00−5wsw5118425 0.0 1013326
08:00−6wsw4108953 0.0 1014273
11:00−3wsw6873100 0.0 1015566
14:00−1wsw6762100 0.0 10141263
17:00−3sw3574100 0.1 101697
20:00−4wsw34745 0.1 101781
23 january, sun
sun2323:00−5wsw33765 0.0 101855
02:00−5sw228360 0.0 101921
05:00−6w22895 0.0 102014
08:00−6n119118 0.0 102110
11:00−3ne2375100 0.0 1022339
14:00−2ne3461100 0.0 1022655
17:00−3nne5975100 0.0 1023326
20:00−4ne71280100 0.0 1023583